Regional Weather Roundup
Issued by NWS

Home | Current Version | Previous Version | Graphics & Text | Print | Product List | Glossary Off
Versions: 1 2 3 4 5 6 7 8 9 10 11 12 13 14 15 16 17 18 19 20 21 22 23 24 25 26 27 28 29 30 31 32 33 34 35 36 37 38 39 40 41 42 43 44 45 46 47 48 49 50

000
ASUS43 KMPX 190401
RWRMN
WEATHER ROUNDUP FOR MINNESOTA
NATIONAL WEATHER SERVICE TWIN CITIES/CHANHASSEN MN
1100 PM CDT MON SEP 18 2017


NOTE: "FAIR" INDICATES FEW OR NO CLOUDS BELOW 12,000 FEET WITH NO
SIGNIFICANT WEATHER AND/OR OBSTRUCTIONS TO VISIBILITY. N/A MEANS
CURRENT SKY AND/OR WEATHER CONDITIONS ARE NOT AVAILABLE.

MNZ060>063-068>070-190500-
   Twin Cities Metro

CITY           SKY/WX    TMP DP  RH WIND       PRES   REMARKS
TWIN CITIES    CLOUDY    59  57  93 SE10      29.96F
ST PAUL        CLOUDY    58  56  93 SE9       29.97F
CRYSTAL        CLOUDY    58  53  84 SE7       29.95S
BLAINE         CLOUDY    59  57  94 SE6       29.96S
LAKEVILLE      CLOUDY    55  55 100 CALM      29.96S
EDEN PRAIRIE   CLOUDY    59  56  89 E7        29.95R
SOUTH ST PAUL  CLOUDY    57  56  97 CALM      29.97S
LAKE ELMO      CLOUDY    55  55 100 SE3       29.99S
$$
MNZ001>005-007-008-013>017-022>024-027-028-190500-
   Northwest Minnesota

CITY           SKY/WX    TMP DP  RH WIND       PRES   REMARKS
BEMIDJI        CLOUDY    55  54  95 SE10      29.90F
HALLOCK        CLEAR     55  54  94 SE8       29.84S
ROSEAU           N/A     55  52  88 S6        29.88R
WARROAD        MOCLDY    54  48  82 SE5       29.89S
CROOKSTON      CLOUDY    59  55  88 SE10      29.85S
FOSSTON        CLOUDY    55  54  94 SE8       29.88S
DETROIT LAKES  CLOUDY    57  55  94 SE12      29.88S
MOORHEAD       PTCLDY    61  55  82 SE9       29.83F
PARK RAPIDS    CLOUDY    56  53  90 SE16      29.91S
MAHNOMEN       CLOUDY    58  55  91 SE10G16   29.86S
$$
MNZ006-009>011-018-025>026-190500-
   North Central Minnesota

CITY           SKY/WX    TMP DP  RH WIND       PRES   REMARKS
BAUDETTE       CLOUDY    55  53  93 SE6       29.91F
FLAG ISLAND    CLEAR     57  54  88 S12       29.88S
INTL FALLS     CLOUDY    56  50  80 SE5       29.95S
WASKISH        CLOUDY    55  54  94 SE6       29.91F
BIG FORK       CLOUDY    55  52  88 S8        29.95S
LONGVILLE      CLOUDY    54  52  94 SE12      29.94S
GRAND RAPIDS   CLOUDY    53  50  89 S10       29.98S
CRANE LAKE     CLOUDY    54  52  94 CALM      29.98F
ORR            CLOUDY    54  48  82 S9        29.95S
COOK           CLOUDY    54  50  87 S6        29.99S
WALKER         CLOUDY    55  52  91 SE13      29.92S
$$
MNZ012-019>021-037-190500-
   Northeast Minnesota

CITY           SKY/WX    TMP DP  RH WIND       PRES   REMARKS
DULUTH         CLOUDY    54  50  86 SE8       30.00S
ELY            CLOUDY    54  48  82 S8        30.01S
HIBBING        CLOUDY    52  48  86 SE7       29.99S
EVELETH        CLOUDY    54  50  86 SE3       30.01S
DULUTH HARBOR  CLOUDY    59  54  82 CALM      30.01S
TWO HARBORS    MOCLDY    57  52  82 CALM      30.00S
SILVER BAY     CLOUDY    55  54  94 CALM      30.01S
GRAND MARAIS     N/A     59  53  80 SW10      30.04S
$$
MNZ029>031-032-039>041-046>048-054>057-064-190500-
   West Central Minnesota

CITY           SKY/WX    TMP DP  RH WIND       PRES   REMARKS
FERGUS FALLS   CLOUDY    59  59 100 SE10      29.87R
WHEATON        CLOUDY    59  57  94 SE14G21   29.87R FOG
MORRIS         CLOUDY    61  59  94 SE13      29.87F FOG
ALEXANDRIA     CLOUDY    56  56 100 SE10      29.92S FOG
ELBOW LAKE     CLOUDY    58  57  97 E10       29.88S
WADENA         CLOUDY    54  54 100 SE12      29.91R
GLENWOOD       FOG       55  55 100 SE10      29.92S VSB 1/2
APPLETON       CLOUDY    63  59  88 SE10      29.87F
BENSON         CLOUDY    61  57  88 S10       29.91S FOG
ORTONVILLE     CLOUDY    61  57  88 NE12G17   29.86S FOG
MADISON        CLOUDY    64  64 100 SE10      29.87F
WILLMAR        CLOUDY    61  61 100 SE8       29.93S FOG
$$
MNZ033>034-036-042>043-049>051-058-059-190500-
   Central Minnesota

CITY           SKY/WX    TMP DP  RH WIND       PRES   REMARKS
ST CLOUD       CLOUDY    54  54 100 E5        29.95S FOG
PAYNESVILLE    CLOUDY    56  56 100 SE8       29.94S FOG
AITKIN         CLOUDY    52  50  93 SE6       29.95F FOG
PINE RIVER     CLOUDY    52  48  87 SE10      29.97F
BRAINERD       CLOUDY    53  52  96 SE8       29.96S FOG
STAPLES        CLOUDY    54  54 100 SE9G16    29.92F FOG
LONG PRAIRIE   CLOUDY    54  54 100 E6        29.93F FOG
LITTLE FALLS   CLOUDY    52  50  93 SE7       29.95S FOG
LITCHFIELD     CLOUDY    57  57 100 SE7       29.94S FOG
BUFFALO        CLOUDY    56  55  94 E5        29.96S
MAPLE LAKE     CLOUDY    57  57  98 SE3       29.95S FOG
HUTCHINSON     CLOUDY    59  59 100 E6        29.95S FOG
$$
MNZ037-044-045-052-053-190500-
   East Central Minnesota

CITY           SKY/WX    TMP DP  RH WIND       PRES   REMARKS
PRINCETON      CLOUDY    55  54  94 E6        29.96F
MORA           CLOUDY    54  52  94 E5        29.99F
RUSH CITY      CLOUDY    55  52  88 CALM      29.98S
MOOSE LAKE     CLOUDY    54  50  87 CALM      29.98S
HINCKLEY       CLOUDY    54  52  94 E3        29.99S FOG
CLOQUET        CLOUDY    54  46  76 CALM      30.00S
MCGREGOR       CLOUDY    52  50  93 SE5       29.99S
$$
MNZ071>073-080-081-089-090-097-098-190500-
   Southwest Minnesota

CITY           SKY/WX    TMP DP  RH WIND       PRES   REMARKS
MONTEVIDEO     CLOUDY    63  61  94 S9        29.90S
GRANITE FALLS  CLOUDY    63  62  96 SE6       29.92R FOG
CANBY          CLOUDY    64  62  94 E7        29.88F FOG
MARSHALL       CLOUDY    62  62 100 SE9       29.90R FOG
REDWOOD FALLS  CLOUDY    61  59  93 SE7       29.91S FOG
OLIVIA         CLOUDY    59  57  94 SE7       29.91F FOG
PIPESTONE      FOG       64  63  94 S7        29.89S VSB 3/4
WINDOM         FOG       64  63  94 SE7       29.92S VSB 3/4
WORTHINGTON    CLOUDY    64  64 100 S8        29.92S FOG
JACKSON        CLOUDY    63  63 100 CALM      29.93S FOG
TRACY          FOG       63  64 100 SE6       29.91R VSB 3/4
SLAYTON        FOG       62  61  95 SE5       29.91F VSB 1/4
$$
MNZ065>067-074>077-082>085-091>093-190500-
   South Central Minnesota

CITY           SKY/WX    TMP DP  RH WIND       PRES   REMARKS
MANKATO        CLOUDY    61  59  93 SE8       29.94S
NEW ULM        CLOUDY    61  61 100 SE7       29.93R
ST JAMES       CLOUDY    63  63 100 SE3       29.94R FOG
FAIRMONT       CLOUDY    62  61  96 SE5       29.94R FOG
GLENCOE        CLOUDY    59  60 100 E3        29.94S
FARIBAULT      CLOUDY    57  57 100 E5        29.96S
OWATONNA       MOCLDY    61  57  88 SE8       29.95S
WASECA         CLOUDY    59  59 100 SE5       29.96S
ALBERT LEA     CLOUDY    63  63 100 SE5       29.96R
$$
MNZ078>079-086>088-094>096-190500-
   Southeast Minnesota

CITY           SKY/WX    TMP DP  RH WIND       PRES   REMARKS
ROCHESTER      CLOUDY    57  56  96 SE7       29.98R
RED WING       MOCLDY    57  54  88 E3        29.97R
STANTON        CLOUDY    59  56  90 E3        29.95S
DODGE CENTER   CLOUDY    57  55  94 CALM      29.97S
WINONA         CLOUDY    59  57  94 CALM      29.99R
AUSTIN         CLOUDY    61  57  88 CALM      29.96S
PRESTON        MOCLDY    57  55  95 E6        29.99S
$$
ABBREVIATIONS USED IN REMARKS
   TC - TEMPERATURES IN CELSIUS
  WCI - WIND CHILL INDEX
   HX - HEAT INDEX
  VSB - VISIBILITY
$$




USA.gov is the U.S. government's official web portal to all federal, state and local government web resources and services.